,,,PA_Meas_PMT16A,,PR_Meas_QMR101_102,,RH_Meas_QMH101,,SR_Meas_QMS101,,TA_Meas_QMH101,,GenWind,,GenWind,
date,time,status,PA,status,PR,status,RH,status,SR,status,TA,status,DirAvg,status,SpdAvg,
2009-01-05, 00:00:04,VALID,1003.39,VALID,0,VALID,93.9191,VALID,0.100563,VALID,24.0132,VALID,360,VALID,0,
2009-01-05, 00:01:04,VALID,1003.36,VALID,0,VALID,94.0107,VALID,0.100563,VALID,24.0326,VALID,360,VALID,0,
2009-01-05, 00:02:04,VALID,1003.36,VALID,0,VALID,94.0107,VALID,0.100563,VALID,24.0326,VALID,360,VALID,0,
2009-01-05, 00:03:04,VALID,1003.38,VALID,0,VALID,94.0336,VALID,0.100563,VALID,24.0326,VALID,360,VALID,0,
2009-01-05, 00:04:04,VALID,1003.4,VALID,0,VALID,94.087,VALID,0.100563,VALID,24.0521,VALID,360,VALID,0.0609375,
2009-01-05, 00:05:04,VALID,1003.38,VALID,0,VALID,94.0946,VALID,0,VALID,24.0716,VALID,360,VALID,0.355469,
2009-01-05, 00:06:04,VALID,1003.4,VALID,0,VALID,94.0946,VALID,0.100563,VALID,24.0521,VALID,360,VALID,0.429688,
2009-01-05, 00:07:04,VALID,1003.42,VALID,0,VALID,93.9802,VALID,0.100563,VALID,24.0521,VALID,360,VALID,0.558984,
2009-01-05, 00:08:04,VALID,1003.42,VALID,0,VALID,93.942,VALID,0.100563,VALID,24.0345,VALID,6,VALID,0.558203,
2009-01-05, 00:09:04,VALID,1003.42,VALID,0,VALID,93.9039,VALID,0.100563,VALID,23.9937,VALID,15,VALID,0.589844,
2009-01-05, 00:10:04,VALID,1003.43,VALID,0,VALID,93.82,VALID,0,VALID,23.9353,VALID,15,VALID,0.506641,
2009-01-05, 00:11:04,VALID,1003.41,VALID,0,VALID,93.8734,VALID,0.100563,VALID,23.9353,VALID,15,VALID,0.354688,
2009-01-05, 00:12:04,VALID,1003.43,VALID,0,VALID,94.0031,VALID,0,VALID,23.9566,VALID,15,VALID,0.292969,
2009-01-05, 00:13:04,VALID,1003.39,VALID,0,VALID,94.1099,VALID,0.100563,VALID,23.9548,VALID,15,VALID,0.0851562,
2009-01-05, 00:14:04,VALID,1003.4,VALID,0,VALID,94.1556,VALID,0,VALID,23.9937,VALID,15,VALID,0.310547,
2009-01-05, 00:15:04,VALID,1003.39,VALID,0,VALID,94.2167,VALID,0,VALID,24.0345,VALID,12,VALID,0.500391,
2009-01-05, 00:16:04,VALID,1003.38,VALID,0,VALID,94.2243,VALID,0,VALID,24.0539,VALID,12,VALID,0.5625,
2009-01-05, 00:17:04,VALID,1003.39,VALID,0,VALID,94.1556,VALID,0.100563,VALID,24.0326,VALID,11,VALID,0.679297,
2009-01-05, 00:18:04,VALID,1003.36,VALID,0,VALID,94.148,VALID,0,VALID,24.0326,VALID,11,VALID,0.515234,
2009-01-05, 00:19:04,VALID,1003.34,VALID,0,VALID,94.1862,VALID,0,VALID,24.0326,VALID,11,VALID,0.392969,
2009-01-05, 00:20:04,VALID,1003.34,VALID,0,VALID,94.1938,VALID,0,VALID,24.0326,VALID,11,VALID,0,
2009-01-05, 00:21:04,VALID,1003.32,VALID,0,VALID,94.1785,VALID,0,VALID,24.0326,VALID,11,VALID,0,
2009-01-05, 00:22:04,VALID,1003.31,VALID,0,VALID,94.1709,VALID,0,VALID,24.0326,VALID,11,VALID,0,
2009-01-05, 00:23:04,VALID,1003.32,VALID,0,VALID,94.1556,VALID,0.100563,VALID,24.0132,VALID,11,VALID,0,
2009-01-05, 00:24:04,VALID,1003.33,VALID,0,VALID,94.1099,VALID,0,VALID,23.9937,VALID,11,VALID,0,
2009-01-05, 00:25:04,VALID,1003.34,VALID,0,VALID,94.0717,VALID,0,VALID,23.9955,VALID,11,VALID,0,
2009-01-05, 00:26:04,VALID,1003.35,VALID,0,VALID,94.0641,VALID,0,VALID,23.9761,VALID,11,VALID,0,
2009-01-05, 00:27:04,VALID,1003.34,VALID,0,VALID,94.1022,VALID,0,VALID,23.9566,VALID,11,VALID,0,
2009-01-05, 00:28:04,VALID,1003.37,VALID,0,VALID,94.2167,VALID,0,VALID,23.9955,VALID,11,VALID,0,
2009-01-05, 00:29:04,VALID,1003.39,VALID,0,VALID,94.2624,VALID,0,VALID,24.015,VALID,11,VALID,0,
2009-01-05, 00:30:04,VALID,1003.38,VALID,0,VALID,94.2319,VALID,0,VALID,24.015,VALID,11,VALID,0,
2009-01-05, 00:31:04,VALID,1003.38,VALID,0,VALID,94.2319,VALID,0,VALID,24.015,VALID,11,VALID,0,
2009-01-05, 00:32:04,VALID,1003.33,VALID,0,VALID,94.2472,VALID,0,VALID,24.0363,VALID,11,VALID,0,
2009-01-05, 00:33:04,VALID,1003.33,VALID,0,VALID,94.2472,VALID,0,VALID,24.0363,VALID,11,VALID,0,
2009-01-05, 00:34:04,VALID,1003.33,VALID,0,VALID,94.2548,VALID,0,VALID,24.0557,VALID,11,VALID,0,
2009-01-05, 00:35:04,VALID,1003.32,VALID,0,VALID,94.2777,VALID,0,VALID,24.0345,VALID,11,VALID,0,
2009-01-05, 00:36:04,VALID,1003.32,VALID,0,VALID,94.2548,VALID,0,VALID,24.0557,VALID,11,VALID,0,
2009-01-05, 00:37:04,VALID,1003.3,VALID,0,VALID,94.2624,VALID,0,VALID,24.0345,VALID,11,VALID,0,
2009-01-05, 00:38:04,VALID,1003.29,VALID,0,VALID,94.2472,VALID,0,VALID,24.0363,VALID,11,VALID,0,
2009-01-05, 00:39:05,VALID,1003.28,VALID,0,VALID,94.2167,VALID,0,VALID,24.0363,VALID,11,VALID,0,
2009-01-05, 00:40:05,VALID,1003.26,VALID,0,VALID,94.1785,VALID,0,VALID,23.9937,VALID,11,VALID,0,
2009-01-05, 00:41:05,VALID,1003.25,VALID,0,VALID,94.1328,VALID,0,VALID,23.9761,VALID,11,VALID,0,
2009-01-05, 00:42:05,VALID,1003.24,VALID,0,VALID,94.0565,VALID,0,VALID,23.9566,VALID,11,VALID,0,
2009-01-05, 00:43:05,VALID,1003.24,VALID,0,VALID,94.1251,VALID,0,VALID,23.9159,VALID,11,VALID,0.5125,
2009-01-05, 00:44:05,VALID,1003.24,VALID,0,VALID,94.1328,VALID,0,VALID,23.9159,VALID,11,VALID,0.541797,
2009-01-05, 00:45:05,VALID,1003.25,VALID,0,VALID,94.148,VALID,0,VALID,23.9177,VALID,11,VALID,0.509766,
2009-01-05, 00:46:05,VALID,1003.24,VALID,0,VALID,94.1633,VALID,0,VALID,23.8982,VALID,11,VALID,0.371484,
2009-01-05, 00:47:05,VALID,1003.26,VALID,0,VALID,94.2319,VALID,0,VALID,23.9177,VALID,11,VALID,0.432813,
2009-01-05, 00:48:05,VALID,1003.25,VALID,0,VALID,94.3006,VALID,0,VALID,23.9159,VALID,11,VALID,0.372656,
2009-01-05, 00:49:05,VALID,1003.29,VALID,0,VALID,94.3692,VALID,0,VALID,23.9353,VALID,11,VALID,0.251563,
2009-01-05, 00:50:05,VALID,1003.25,VALID,0,VALID,94.4303,VALID,0,VALID,23.9353,VALID,11,VALID,0.252344,
2009-01-05, 00:51:05,VALID,1003.23,VALID,0,VALID,94.4761,VALID,0,VALID,24.015,VALID,11,VALID,0.133203,
2009-01-05, 00:52:05,VALID,1003.23,VALID,0,VALID,94.5066,VALID,0,VALID,24.0539,VALID,11,VALID,0.201953,
2009-01-05, 00:53:05,VALID,1003.19,VALID,0,VALID,94.4379,VALID,0,VALID,24.0521,VALID,11,VALID,0.15,
2009-01-05, 00:54:05,VALID,1003.17,VALID,0,VALID,94.4074,VALID,0,VALID,24.091,VALID,11,VALID,0.0300781,
2009-01-05, 00:55:05,VALID,1003.11,VALID,0,VALID,94.3464,VALID,0,VALID,24.0929,VALID,11,VALID,0.173828,
2009-01-05, 00:56:05,VALID,1003.12,VALID,0,VALID,94.2777,VALID,0,VALID,24.0521,VALID,11,VALID,0.377344,
2009-01-05, 00:57:05,VALID,1003.1,VALID,0,VALID,94.209,VALID,0,VALID,24.0132,VALID,11,VALID,0.265625,
2009-01-05, 00:58:05,VALID,1003.08,VALID,0,VALID,94.148,VALID,0.100563,VALID,24.015,VALID,11,VALID,0.21875,
2009-01-05, 00:59:05,VALID,1003.1,VALID,0,VALID,94.1099,VALID,0,VALID,23.9548,VALID,11,VALID,0.198828,
2009-01-05, 01:00:05,VALID,1003.05,VALID,0,VALID,94.1404,VALID,0,VALID,23.9566,VALID,11,VALID,0,
2009-01-05, 01:01:05,VALID,1003.05,VALID,0,VALID,94.1785,VALID,0,VALID,23.9353,VALID,11,VALID,0,
2009-01-05, 01:02:05,VALID,1003.05,VALID,0,VALID,94.2167,VALID,0,VALID,23.9566,VALID,11,VALID,0,
2009-01-05, 01:03:05,VALID,1002.99,VALID,0,VALID,94.2167,VALID,0,VALID,23.9566,VALID,11,VALID,0,
2009-01-05, 01:04:05,VALID,1003.01,VALID,0,VALID,94.209,VALID,0,VALID,23.9159,VALID,11,VALID,0,
2009-01-05, 01:05:05,VALID,1002.99,VALID,0,VALID,94.1938,VALID,0.100563,VALID,23.9159,VALID,11,VALID,0.264062,
2009-01-05, 01:06:05,VALID,1003.02,VALID,0,VALID,94.2853,VALID,0,VALID,23.9353,VALID,11,VALID,0.266016,
2009-01-05, 01:07:05,VALID,1002.98,VALID,0,VALID,94.3921,VALID,0,VALID,23.9548,VALID,11,VALID,0.00117188,
2009-01-05, 01:08:05,VALID,1002.99,VALID,0,VALID,94.3845,VALID,0.100563,VALID,23.9742,VALID,11,VALID,0,
2009-01-05, 01:09:05,VALID,1002.96,VALID,0,VALID,94.3387,VALID,0.100563,VALID,23.9955,VALID,11,VALID,0,
2009-01-05, 01:10:05,VALID,1002.94,VALID,0,VALID,94.3692,VALID,0,VALID,23.9955,VALID,11,VALID,0,
2009-01-05, 01:11:05,VALID,1002.95,VALID,0,VALID,94.3387,VALID,0,VALID,23.9937,VALID,11,VALID,0,
2009-01-05, 01:12:05,VALID,1002.97,VALID,0,VALID,94.3158,VALID,0.100563,VALID,23.9742,VALID,11,VALID,0.279687,
2009-01-05, 01:13:05,VALID,1002.95,VALID,0,VALID,94.3082,VALID,0,VALID,23.9548,VALID,11,VALID,0.348437,
2009-01-05, 01:14:05,VALID,1002.97,VALID,0,VALID,94.3082,VALID,0,VALID,23.9742,VALID,11,VALID,0.181641,
2009-01-05, 01:15:05,VALID,1002.97,VALID,0,VALID,94.3006,VALID,0.100563,VALID,23.9548,VALID,11,VALID,0.0273438,
2009-01-05, 01:16:05,VALID,1002.98,VALID,0,VALID,94.293,VALID,0,VALID,23.9353,VALID,11,VALID,0,
2009-01-05, 01:17:05,VALID,1002.98,VALID,0,VALID,94.3464,VALID,0,VALID,23.9566,VALID,11,VALID,0.000390625,
2009-01-05, 01:18:05,VALID,1002.98,VALID,0,VALID,94.3464,VALID,0,VALID,23.9566,VALID,11,VALID,0,
2009-01-05, 01:19:05,VALID,1003.01,VALID,0,VALID,94.3845,VALID,0,VALID,23.9353,VALID,11,VALID,0,
2009-01-05, 01:20:05,VALID,1003.02,VALID,0,VALID,94.4074,VALID,0,VALID,23.9761,VALID,11,VALID,0,
2009-01-05, 01:21:05,VALID,1003.02,VALID,0,VALID,94.4761,VALID,0,VALID,23.9742,VALID,11,VALID,0,
2009-01-05, 01:22:05,VALID,1003.03,VALID,0,VALID,94.4455,VALID,0,VALID,24.015,VALID,11,VALID,0,
2009-01-05, 01:23:05,VALID,1003.04,VALID,0,VALID,94.4379,VALID,0,VALID,23.9937,VALID,11,VALID,0,
2009-01-05, 01:24:05,VALID,1003.01,VALID,0,VALID,94.4074,VALID,0,VALID,23.9937,VALID,11,VALID,0,
2009-01-05, 01:25:05,VALID,1003,VALID,0,VALID,94.3845,VALID,0,VALID,23.9955,VALID,11,VALID,0,
2009-01-05, 01:26:05,VALID,1002.95,VALID,0,VALID,94.354,VALID,0,VALID,23.9761,VALID,11,VALID,0,
2009-01-05, 01:27:05,VALID,1002.97,VALID,0,VALID,94.3235,VALID,0,VALID,23.9761,VALID,11,VALID,0,
2009-01-05, 01:28:05,VALID,1002.95,VALID,0,VALID,94.2701,VALID,0,VALID,23.9353,VALID,11,VALID,0.442187,
2009-01-05, 01:29:05,VALID,1002.9,VALID,0,VALID,94.1862,VALID,0,VALID,23.8982,VALID,11,VALID,0.366406,
2009-01-05, 01:30:05,VALID,1002.9,VALID,0,VALID,94.2472,VALID,0,VALID,23.8787,VALID,9,VALID,0.423047,
2009-01-05, 01:31:05,VALID,1002.9,VALID,0,VALID,94.5218,VALID,0,VALID,23.9177,VALID,9,VALID,0.210938,
2009-01-05, 01:32:05,VALID,1002.86,VALID,0,VALID,94.5142,VALID,0,VALID,23.9566,VALID,9,VALID,0.249219,
2009-01-05, 01:33:05,VALID,1002.84,VALID,0,VALID,94.4455,VALID,0,VALID,23.9779,VALID,9,VALID,0.372656,
2009-01-05, 01:34:05,VALID,1002.83,VALID,0,VALID,94.4684,VALID,0,VALID,23.9353,VALID,9,VALID,0.0128906,
2009-01-05, 01:35:05,VALID,1002.83,VALID,0,VALID,94.4608,VALID,0,VALID,23.9566,VALID,9,VALID,0,
2009-01-05, 01:36:05,VALID,1002.8,VALID,0,VALID,94.3998,VALID,0,VALID,23.9371,VALID,9,VALID,0,
2009-01-05, 01:37:05,VALID,1002.77,VALID,0,VALID,94.3921,VALID,0,VALID,23.9177,VALID,9,VALID,0,
2009-01-05, 01:38:05,VALID,1002.76,VALID,0,VALID,94.415,VALID,0,VALID,23.9177,VALID,9,VALID,0,
2009-01-05, 01:39:05,VALID,1002.76,VALID,0,VALID,94.4761,VALID,0,VALID,23.9177,VALID,9,VALID,0,
2009-01-05, 01:40:05,VALID,1002.75,VALID,0,VALID,94.5066,VALID,0,VALID,23.9353,VALID,9,VALID,0,
2009-01-05, 01:41:05,VALID,1002.77,VALID,0,VALID,94.5066,VALID,0,VALID,23.9353,VALID,9,VALID,0,
2009-01-05, 01:42:05,VALID,1002.76,VALID,0,VALID,94.4989,VALID,0,VALID,23.9353,VALID,9,VALID,0,
2009-01-05, 01:43:05,VALID,1002.71,VALID,0,VALID,94.4837,VALID,0,VALID,23.9566,VALID,9,VALID,0,
2009-01-05, 01:44:05,VALID,1002.73,VALID,0,VALID,94.4913,VALID,0,VALID,23.9566,VALID,9,VALID,0,
2009-01-05, 01:45:05,VALID,1002.73,VALID,0,VALID,94.4989,VALID,0,VALID,23.9566,VALID,9,VALID,0,
2009-01-05, 01:46:05,VALID,1002.7,VALID,0,VALID,94.5142,VALID,0,VALID,23.9566,VALID,9,VALID,0,
2009-01-05, 01:47:05,VALID,1002.71,VALID,0,VALID,94.4837,VALID,0,VALID,23.9371,VALID,9,VALID,0,
2009-01-05, 01:48:05,VALID,1002.73,VALID,0,VALID,94.4532,VALID,0,VALID,23.9159,VALID,9,VALID,0,
2009-01-05, 01:49:05,VALID,1002.73,VALID,0,VALID,94.4532,VALID,0,VALID,23.9177,VALID,9,VALID,0,
2009-01-05, 01:50:05,VALID,1002.76,VALID,0,VALID,94.4532,VALID,0,VALID,23.8982,VALID,9,VALID,0,
2009-01-05, 01:51:05,VALID,1002.75,VALID,0,VALID,94.4074,VALID,0,VALID,23.8787,VALID,9,VALID,0,
2009-01-05, 01:52:05,VALID,1002.77,VALID,0,VALID,94.3998,VALID,0,VALID,23.8593,VALID,9,VALID,0,
2009-01-05, 01:53:05,VALID,1002.79,VALID,0,VALID,94.4379,VALID,0,VALID,23.8575,VALID,9,VALID,0.333203,
2009-01-05, 01:54:05,VALID,1002.81,VALID,0,VALID,94.5066,VALID,0,VALID,23.8575,VALID,9,VALID,0.291406,
2009-01-05, 01:55:05,VALID,1002.79,VALID,0,VALID,94.5523,VALID,0,VALID,23.9,VALID,9,VALID,0.346094,
2009-01-05, 01:56:05,VALID,1002.79,VALID,0,VALID,94.6134,VALID,0,VALID,23.8982,VALID,9,VALID,0.398828,
2009-01-05, 01:57:05,VALID,1002.81,VALID,0,VALID,94.5218,VALID,0,VALID,23.9195,VALID,9,VALID,0.453906,
2009-01-05, 01:58:05,VALID,1002.78,VALID,0,VALID,94.5142,VALID,0,VALID,23.8982,VALID,9,VALID,0.362109,
2009-01-05, 01:59:05,VALID,1002.74,VALID,0,VALID,94.5371,VALID,0,VALID,23.8982,VALID,9,VALID,0.1875,
2009-01-05, 02:00:05,VALID,1002.7,VALID,0,VALID,94.4989,VALID,0,VALID,23.8787,VALID,9,VALID,0.378516,
2009-01-05, 02:01:05,VALID,1002.68,VALID,0,VALID,94.4761,VALID,0,VALID,23.9,VALID,9,VALID,0.370313,
2009-01-05, 02:02:05,VALID,1002.68,VALID,0,VALID,94.4684,VALID,0,VALID,23.8805,VALID,9,VALID,0.123438,
2009-01-05, 02:03:05,VALID,1002.64,VALID,0,VALID,94.4684,VALID,0,VALID,23.8398,VALID,9,VALID,0.0351563,
2009-01-05, 02:04:05,VALID,1002.67,VALID,0,VALID,94.4532,VALID,0,VALID,23.8203,VALID,9,VALID,0,
2009-01-05, 02:05:05,VALID,1002.66,VALID,0,VALID,94.4608,VALID,0,VALID,23.8203,VALID,9,VALID,0,
2009-01-05, 02:06:05,VALID,1002.68,VALID,0,VALID,94.4761,VALID,0,VALID,23.8416,VALID,9,VALID,0,
2009-01-05, 02:07:05,VALID,1002.67,VALID,0,VALID,94.5676,VALID,0,VALID,23.8593,VALID,9,VALID,0,
2009-01-05, 02:08:05,VALID,1002.67,VALID,0,VALID,94.621,VALID,0,VALID,23.9,VALID,9,VALID,0.185937,
2009-01-05, 02:09:05,VALID,1002.69,VALID,0,VALID,94.5752,VALID,0,VALID,23.8787,VALID,9,VALID,0.466406,
2009-01-05, 02:10:05,VALID,1002.7,VALID,0,VALID,94.5371,VALID,0,VALID,23.8787,VALID,9,VALID,0.521094,
2009-01-05, 02:11:05,VALID,1002.67,VALID,0,VALID,94.6363,VALID,0,VALID,23.8982,VALID,9,VALID,0.442187,
2009-01-05, 02:12:05,VALID,1002.65,VALID,0,VALID,94.6439,VALID,0,VALID,23.8982,VALID,9,VALID,0.450781,
2009-01-05, 02:13:05,VALID,1002.63,VALID,0,VALID,94.6973,VALID,0.100563,VALID,23.9566,VALID,8,VALID,0.325,
2009-01-05, 02:14:05,VALID,1002.63,VALID,0,VALID,94.6668,VALID,0.100563,VALID,23.9353,VALID,8,VALID,0.198047,
2009-01-05, 02:15:05,VALID,1002.6,VALID,0,VALID,94.5371,VALID,0,VALID,23.9566,VALID,8,VALID,0.253125,
2009-01-05, 02:16:05,VALID,1002.61,VALID,0,VALID,94.4608,VALID,0.100563,VALID,23.9371,VALID,8,VALID,0.323438,
2009-01-05, 02:17:05,VALID,1002.59,VALID,0,VALID,94.4532,VALID,0,VALID,23.8982,VALID,8,VALID,0.362109,
2009-01-05, 02:18:05,VALID,1002.61,VALID,0,VALID,94.5066,VALID,0.100563,VALID,23.8769,VALID,8,VALID,0.294922,
2009-01-05, 02:19:05,VALID,1002.62,VALID,0,VALID,94.5523,VALID,0,VALID,23.8982,VALID,8,VALID,0.185937,
2009-01-05, 02:20:05,VALID,1002.59,VALID,0,VALID,94.5905,VALID,0,VALID,23.9177,VALID,8,VALID,0.122656,
2009-01-05, 02:21:05,VALID,1002.61,VALID,0,VALID,94.5752,VALID,0,VALID,23.9371,VALID,8,VALID,0.100781,
2009-01-05, 02:22:05,VALID,1002.63,VALID,0,VALID,94.5905,VALID,0,VALID,23.9371,VALID,8,VALID,0,
2009-01-05, 02:23:05,VALID,1002.63,VALID,0,VALID,94.621,VALID,0,VALID,23.9159,VALID,8,VALID,0.00390625,
2009-01-05, 02:24:05,VALID,1002.6,VALID,0,VALID,94.6286,VALID,0.100563,VALID,23.9353,VALID,8,VALID,0.401172,
2009-01-05, 02:25:05,VALID,1002.57,VALID,0,VALID,94.6286,VALID,0.100563,VALID,23.9353,VALID,8,VALID,0.376172,
2009-01-05, 02:26:05,VALID,1002.52,VALID,0,VALID,94.6439,VALID,0.100563,VALID,23.9353,VALID,8,VALID,0.225781,
2009-01-05, 02:27:05,VALID,1002.5,VALID,0,VALID,94.6363,VALID,0,VALID,23.9353,VALID,8,VALID,0.423047,
2009-01-05, 02:28:05,VALID,1002.46,VALID,0,VALID,94.6515,VALID,0,VALID,23.9566,VALID,8,VALID,0.335547,
2009-01-05, 02:29:05,VALID,1002.44,VALID,0,VALID,94.6515,VALID,0,VALID,23.9566,VALID,7,VALID,0.626953,
2009-01-05, 02:30:05,VALID,1002.41,VALID,0,VALID,94.6668,VALID,0,VALID,23.9761,VALID,7,VALID,0.679688,
2009-01-05, 02:31:05,VALID,1002.4,VALID,0,VALID,94.6363,VALID,0,VALID,23.9353,VALID,6,VALID,0.635938,
2009-01-05, 02:32:05,VALID,1002.44,VALID,0,VALID,94.766,VALID,0,VALID,23.9548,VALID,356,VALID,0.625781,
2009-01-05, 02:33:05,VALID,1002.39,VALID,0,VALID,94.7125,VALID,0,VALID,23.9955,VALID,352,VALID,0.513672,
2009-01-05, 02:34:05,VALID,1002.41,VALID,0,VALID,94.6286,VALID,0.100563,VALID,23.9566,VALID,352,VALID,0.452344,
2009-01-05, 02:35:05,VALID,1002.37,VALID,0,VALID,94.5676,VALID,0,VALID,23.8964,VALID,352,VALID,0.548047,
2009-01-05, 02:36:05,VALID,1002.39,VALID,0,VALID,94.6744,VALID,0,VALID,23.9371,VALID,352,VALID,0.235156,
2009-01-05, 02:37:05,VALID,1002.36,VALID,0,VALID,94.682,VALID,0,VALID,23.9371,VALID,352,VALID,0.132031,
2009-01-05, 02:38:05,VALID,1002.34,VALID,0,VALID,94.6439,VALID,0,VALID,23.9177,VALID,352,VALID,0,
2009-01-05, 02:39:05,VALID,1002.33,VALID,0,VALID,94.621,VALID,0.100563,VALID,23.8982,VALID,352,VALID,0,
2009-01-05, 02:40:05,VALID,1002.31,VALID,0,VALID,94.6286,VALID,0,VALID,23.8982,VALID,352,VALID,0,
2009-01-05, 02:41:05,VALID,1002.31,VALID,0,VALID,94.6363,VALID,0,VALID,23.8787,VALID,352,VALID,0,
2009-01-05, 02:42:05,VALID,1002.28,VALID,0,VALID,94.6363,VALID,0,VALID,23.8787,VALID,352,VALID,0,
2009-01-05, 02:43:05,VALID,1002.31,VALID,0,VALID,94.6439,VALID,0,VALID,23.8575,VALID,352,VALID,0.310937,
2009-01-05, 02:44:05,VALID,1002.27,VALID,0,VALID,94.6134,VALID,0,VALID,23.838,VALID,352,VALID,0.366016,
2009-01-05, 02:45:05,VALID,1002.28,VALID,0,VALID,94.5142,VALID,0,VALID,23.8203,VALID,352,VALID,0.388672,
2009-01-05, 02:46:05,VALID,1002.26,VALID,0,VALID,94.4303,VALID,0,VALID,23.7425,VALID,352,VALID,0.380859,
2009-01-05, 02:47:05,VALID,1002.28,VALID,0,VALID,94.4837,VALID,0,VALID,23.7017,VALID,352,VALID,0.262891,
2009-01-05, 02:48:05,VALID,1002.23,VALID,0,VALID,94.5676,VALID,0,VALID,23.7017,VALID,352,VALID,0.301953,
2009-01-05, 02:49:05,VALID,1002.21,VALID,0,VALID,94.6515,VALID,0,VALID,23.723,VALID,352,VALID,0.289063,
2009-01-05, 02:50:05,VALID,1002.19,VALID,0,VALID,94.6744,VALID,0.100563,VALID,23.7425,VALID,352,VALID,0.263281,
2009-01-05, 02:51:05,VALID,1002.17,VALID,0,VALID,94.7202,VALID,0,VALID,23.7425,VALID,352,VALID,0.341797,
2009-01-05, 02:52:05,VALID,1002.15,VALID,0,VALID,94.7354,VALID,0,VALID,23.7619,VALID,352,VALID,0.308984,
2009-01-05, 02:53:05,VALID,1002.17,VALID,0,VALID,94.7736,VALID,0,VALID,23.7407,VALID,352,VALID,0.412109,
2009-01-05, 02:54:05,VALID,1002.15,VALID,0,VALID,94.8041,VALID,0,VALID,23.7619,VALID,352,VALID,0.498828,
2009-01-05, 02:55:05,VALID,1002.13,VALID,0,VALID,94.8499,VALID,0,VALID,23.7601,VALID,352,VALID,0.46875,
2009-01-05, 02:56:05,VALID,1002.11,VALID,0,VALID,94.9338,VALID,0,VALID,23.8203,VALID,352,VALID,0.432031,
2009-01-05, 02:57:05,VALID,1002.12,VALID,0,VALID,94.9109,VALID,0,VALID,23.8398,VALID,352,VALID,0.292188,
2009-01-05, 02:58:05,VALID,1002.1,VALID,0,VALID,94.888,VALID,0,VALID,23.8593,VALID,352,VALID,0,
2009-01-05, 02:59:05,VALID,1002.12,VALID,0,VALID,94.8575,VALID,0.100563,VALID,23.8398,VALID,352,VALID,0.065625,
2009-01-05, 03:00:05,VALID,1002.12,VALID,0,VALID,94.8194,VALID,0,VALID,23.8185,VALID,352,VALID,0,
2009-01-05, 03:01:05,VALID,1002.14,VALID,0,VALID,94.7812,VALID,0,VALID,23.8203,VALID,352,VALID,0,
2009-01-05, 03:02:05,VALID,1002.11,VALID,0,VALID,94.7583,VALID,0,VALID,23.7796,VALID,352,VALID,0,
2009-01-05, 03:03:05,VALID,1002.1,VALID,0,VALID,94.6973,VALID,0,VALID,23.7619,VALID,352,VALID,0.009375,
2009-01-05, 03:04:05,VALID,1002.08,VALID,0,VALID,94.6973,VALID,0.100563,VALID,23.7425,VALID,352,VALID,0,
2009-01-05, 03:05:05,VALID,1002.08,VALID,0,VALID,94.7278,VALID,0,VALID,23.7425,VALID,352,VALID,0,
2009-01-05, 03:06:05,VALID,1002.08,VALID,0,VALID,94.7507,VALID,0,VALID,23.723,VALID,352,VALID,0,
2009-01-05, 03:07:05,VALID,1002.08,VALID,0,VALID,94.8041,VALID,0,VALID,23.723,VALID,352,VALID,0.400781,
2009-01-05, 03:08:05,VALID,1002.13,VALID,0,VALID,94.7812,VALID,0,VALID,23.723,VALID,352,VALID,0.311328,
2009-01-05, 03:09:05,VALID,1002.14,VALID,0,VALID,94.8499,VALID,0.100563,VALID,23.723,VALID,352,VALID,0.500391,
2009-01-05, 03:10:05,VALID,1002.17,VALID,0,VALID,94.8728,VALID,0.100563,VALID,23.7619,VALID,352,VALID,0.442187,
2009-01-05, 03:11:05,VALID,1002.18,VALID,0,VALID,94.888,VALID,0,VALID,23.7407,VALID,352,VALID,0.564844,
2009-01-05, 03:12:05,VALID,1002.22,VALID,0,VALID,94.8194,VALID,0,VALID,23.7619,VALID,352,VALID,0.510156,
2009-01-05, 03:13:05,VALID,1002.18,VALID,0,VALID,94.8041,VALID,0,VALID,23.723,VALID,352,VALID,0.554688,
2009-01-05, 03:14:05,VALID,1002.19,VALID,0,VALID,94.7965,VALID,0,VALID,23.723,VALID,352,VALID,0.412891,
2009-01-05, 03:15:05,VALID,1002.19,VALID,0,VALID,94.8499,VALID,0,VALID,23.723,VALID,352,VALID,0.454297,
2009-01-05, 03:16:05,VALID,1002.2,VALID,0,VALID,94.827,VALID,0,VALID,23.723,VALID,352,VALID,0.307813,
2009-01-05, 03:17:04,VALID,1002.2,VALID,0,VALID,94.8117,VALID,0.100563,VALID,23.7017,VALID,352,VALID,0.0503906,
2009-01-05, 03:18:04,VALID,1002.2,VALID,0,VALID,94.8422,VALID,0,VALID,23.723,VALID,352,VALID,0.221094,
2009-01-05, 03:19:04,VALID,1002.21,VALID,0,VALID,94.8956,VALID,0,VALID,23.7017,VALID,352,VALID,0.0382813,
2009-01-05, 03:20:04,VALID,1002.19,VALID,0,VALID,94.888,VALID,0,VALID,23.723,VALID,352,VALID,0,
2009-01-05, 03:21:04,VALID,1002.2,VALID,0,VALID,94.8117,VALID,0,VALID,23.723,VALID,352,VALID,0,
2009-01-05, 03:22:04,VALID,1002.22,VALID,0,VALID,94.8346,VALID,0,VALID,23.7035,VALID,352,VALID,0.190234,
2009-01-05, 03:23:04,VALID,1002.22,VALID,0,VALID,94.827,VALID,0.100563,VALID,23.6628,VALID,352,VALID,0.2,
2009-01-05, 03:24:04,VALID,1002.24,VALID,0,VALID,94.8575,VALID,0,VALID,23.6841,VALID,352,VALID,0.472266,
2009-01-05, 03:25:04,VALID,1002.22,VALID,0,VALID,94.9033,VALID,0,VALID,23.7248,VALID,352,VALID,0.349219,
2009-01-05, 03:26:04,VALID,1002.23,VALID,0,VALID,94.9643,VALID,0,VALID,23.7248,VALID,7,VALID,0.0460938,
2009-01-05, 03:27:04,VALID,1002.24,VALID,0,VALID,94.9338,VALID,0,VALID,23.7443,VALID,7,VALID,0.0539063,
2009-01-05, 03:28:04,VALID,1002.23,VALID,0,VALID,94.9262,VALID,0,VALID,23.7443,VALID,7,VALID,0.234375,
2009-01-05, 03:29:04,VALID,1002.2,VALID,0,VALID,94.9643,VALID,0,VALID,23.785,VALID,7,VALID,0.405078,
2009-01-05, 03:30:04,VALID,1002.22,VALID,0,VALID,94.9719,VALID,0,VALID,23.7637,VALID,7,VALID,0.352734,
2009-01-05, 03:31:04,VALID,1002.23,VALID,0,VALID,94.9796,VALID,0,VALID,23.7832,VALID,7,VALID,0.428516,
2009-01-05, 03:32:04,VALID,1002.27,VALID,0,VALID,94.9872,VALID,0,VALID,23.8027,VALID,7,VALID,0.427344,
2009-01-05, 03:33:04,VALID,1002.28,VALID,0,VALID,94.9719,VALID,0,VALID,23.8027,VALID,8,VALID,0.441016,
2009-01-05, 03:34:04,VALID,1002.33,VALID,0,VALID,94.9872,VALID,0,VALID,23.8027,VALID,9,VALID,0.529688,
2009-01-05, 03:35:04,VALID,1002.34,VALID,0,VALID,94.949,VALID,0,VALID,23.8027,VALID,21,VALID,0.475,
2009-01-05, 03:36:04,VALID,1002.36,VALID,0,VALID,94.7812,VALID,0,VALID,23.7637,VALID,21,VALID,0.45625,
2009-01-05, 03:37:04,VALID,1002.42,VALID,0,VALID,94.7736,VALID,0,VALID,23.6646,VALID,21,VALID,0.300391,
2009-01-05, 03:38:04,VALID,1002.44,VALID,0,VALID,94.7965,VALID,0,VALID,23.6859,VALID,21,VALID,0.00195313,
2009-01-05, 03:39:04,VALID,1002.42,VALID,0,VALID,94.8346,VALID,0,VALID,23.6664,VALID,21,VALID,0.0535156,
2009-01-05, 03:40:04,VALID,1002.42,VALID,0,VALID,94.8728,VALID,0,VALID,23.6841,VALID,21,VALID,0.141797,
2009-01-05, 03:41:04,VALID,1002.47,VALID,0,VALID,94.8956,VALID,0,VALID,23.7035,VALID,21,VALID,0,
2009-01-05, 03:42:04,VALID,1002.45,VALID,0,VALID,94.9567,VALID,0,VALID,23.723,VALID,21,VALID,0,
2009-01-05, 03:43:04,VALID,1002.46,VALID,0,VALID,94.9643,VALID,0,VALID,23.7619,VALID,21,VALID,0,
2009-01-05, 03:44:04,VALID,1002.48,VALID,0,VALID,94.9719,VALID,0,VALID,23.7814,VALID,21,VALID,0,
2009-01-05, 03:45:04,VALID,1002.42,VALID,0,VALID,94.9719,VALID,0,VALID,23.7601,VALID,21,VALID,0,
2009-01-05, 03:46:04,VALID,1002.4,VALID,0,VALID,95.0558,VALID,0.100563,VALID,23.8398,VALID,21,VALID,0,
2009-01-05, 03:47:04,VALID,1002.38,VALID,0,VALID,95.0711,VALID,0.100563,VALID,23.8787,VALID,21,VALID,0,
2009-01-05, 03:48:04,VALID,1002.39,VALID,0,VALID,95.0635,VALID,0,VALID,23.8964,VALID,21,VALID,0,
2009-01-05, 03:49:04,VALID,1002.35,VALID,0,VALID,95.0711,VALID,0,VALID,23.9177,VALID,21,VALID,0.0285156,
2009-01-05, 03:50:04,VALID,1002.34,VALID,0,VALID,95.0177,VALID,0.100563,VALID,23.9548,VALID,21,VALID,0.109375,